Location: Avon
(37.7514°N, 90.2235°W)
Time: 17:27:31
(UTC+00:00)

Envisat - Pass Details

Date: 12 October 2024
Orbit: 761 x 763 km, 98.3° (Epoch: 05 November)

Event Time Altitude Azimuth Distance (km) Brightness Sun altitude
Rises 08:47:46 0° 17° (NNE) 3,231 6.7 -39.4°
Reaches altitude 10° 08:50:07 10° 21° (NNE) 2,301 5.9 -39.0°
Enters shadow 08:50:55 15° 24° (NNE) 1,997 5.5 -38.8°
